Regional Weather Roundup
Issued by NWS

Home | Current Version | Previous Version | Graphics & Text | Print | Product List | Glossary On
Versions: 1 2 3 4 5 6 7 8 9 10 11 12 13 14 15 16 17 18 19 20 21 22 23 24 25 26 27 28 29 30 31 32 33 34 35 36 37 38 39 40 41 42 43 44 45 46 47 48 49 50
199
ASUS45 KTFX 182210
RWRMT
MONTANA REGIONAL WEATHER ROUNDUP
NATIONAL WEATHER SERVICE GREAT FALLS MT
300 PM MST THU JAN 18 2018

NOTE: "FAIR" INDICATES FEW OR NO CLOUDS BELOW 12000 FEET WITH NO
SIGNIFICANT WEATHER AND/OR OBSTRUCTIONS TO VISIBILITY.

MTZ001>007-043-182300-
WEST OF THE DIVIDE

CITY           SKY/WX    TMP DP  RH WIND       PRES   REMARKS
KALISPELL      FAIR      40  35  83 S10       29.71S
MISSOULA       LGT RAIN  37  34  89 E7        29.77F WCI  32
BUTTE          FAIR      44  29  55 S20       29.73F
MULLAN PASS    SNOW      28  27  96 W8        29.72F VSB 1/4 WCI  20
ANACONDA         N/A     36  32  87 N16       29.74R WCI  26
DEER LODGE       N/A     36  36 100 N8        29.78S WCI  29
EUREKA           N/A     39  34  81 MISG      29.73R
HAMILTON         N/A     37  37 100 S6        29.78F
PLAINS           N/A     35  31  86 CALM      29.80S
RONAN            N/A     39  36  87 W3        29.77R
THOMPSON FALLS   N/A     37  36  96 CALM      29.84
$$

MTZ008-052>055-182300-
SOUTHWEST MONTANA

CITY           SKY/WX    TMP DP  RH WIND       PRES   REMARKS
BOZEMAN        FAIR      40  28  62 CALM      29.76F
DILLON         FAIR      39  28  64 S20G31    29.77F WCI  29
ENNIS          CLOUDY    45  28  53 S24G33    29.88F
W YELLOWSTONE  CLOUDY    36  28  75 VRB3      29.97F
THREE FORKS      N/A     49  33  54 S31       29.74F
$$

MTZ009-010-012-014-046-048-049-054-182300-
EAST SLOPES AND CENTRAL MONTANA

CITY           SKY/WX    TMP DP  RH WIND       PRES   REMARKS
CUT BANK       FAIR      43  32  65 SW18G24   29.61R
GREAT FALLS    CLOUDY    44  34  67 SW13      29.69S
MALMSTROM AFB  CLOUDY    46  34  63 W15G23    29.69F
HELENA         CLOUDY    42  32  67 CALM      29.73S
AUGUSTA        PTSUNNY   38  33  83 SW10      29.68S WCI  31
BOWMANS CRNR   CLOUDY    38  32  79 SW16      29.69F WCI  29
CHOTEAU          N/A     43  32  65 SW17      29.69S
FAIRFIELD      CLOUDY    43  34  71 S12       29.68F
POWER          CLOUDY    38  32  79 SW13      29.68F WCI  30
ULM            PTSUNNY   44  34  65 SW13      29.71R
WHITE SULPHUR    N/A     39  30  70 VRB7      29.72S
$$

MTZ011-013-016-021-045-047-050-051-182300-
NORTH CENTRAL MONTANA

CITY           SKY/WX    TMP DP  RH WIND       PRES   REMARKS
HAVRE          CLOUDY    37  32  82 SW16      29.65S WCI  28
LEWISTOWN      FAIR      42  31  64 W10       29.69R
N BAR RANCH    FAIR      41  28  60 E12G18    29.72R
CHINOOK          N/A     43  30  61 E6        29.64F
DENTON         PTSUNNY   41  32  70 NW14      29.66S
GRASS RANGE    FAIR      51  29  42 CALM      29.65R
STANFORD       PTSUNNY   53  34  48 W13       29.68F
WINIFRED       PTSUNNY   44  32  63 CALM      29.69R
$$

MTZ017>020-022>027-061-062-182300-
NORTHEAST MONTANA

CITY           SKY/WX    TMP DP  RH WIND       PRES   REMARKS
GLASGOW        FAIR      28  20  71 NW3       29.65R
GLENDIVE       FAIR      36  26  67 S10       29.68F WCI  28
JORDAN           N/A     42  30  62 W17       29.65S
MALTA          CLOUDY    27  23  86 SW10      29.67R WCI  17
SIDNEY         FAIR      36  28  73 SW15      29.66F WCI  27
WOLF POINT     FAIR      28  20  71 CALM      29.66R
PLENTYWOOD       N/A     37  28  70 CALM      29.61S
POPLAR           N/A     32  23  69 SE5       29.64F
SCOBEY           N/A     39  25  58 S6        29.62
$$

MTZ028>42-056>058-182300-
SOUTHCENTRAL AND SOUTHEAST MONTANA

CITY           SKY/WX    TMP DP  RH WIND       PRES   REMARKS
BAKER          FAIR      41  27  57 W13       29.73S
BILLINGS       PTSUNNY   45  26  47 W15       29.73F
LIVINGSTON     FAIR      52  32  46 SW36G49   29.73R
MILES CITY     FAIR      34  27  75 S9        29.71S WCI  27
BIG TIMBER     SUNNY     52  30  43 W21G26    29.76R
EKALAKA          N/A     50  22  33 SW5       29.73
FORSYTH          N/A     39  27  60 CALM      29.70F
HARLOWTON      FAIR      35  28  75 N7        29.72F WCI  29
LAUREL           N/A     46  25  42 SW18G24   29.74
ROUNDUP          N/A     41  26  55 W5        29.66F
$$

REGIONAL REPORTS...DAKOTAS

CITY           SKY/WX    TMP DP  RH WIND       PRES   REMARKS
WILLISTON      FAIR      38  28  67 SW9       29.64F WCI  31
MINOT          FAIR      40  26  57 SW24      29.59S
DICKINSON      FAIR      40  28  62 W15       29.67S
BEACH          FAIR      43  25  49 W16       29.71F
CROSBY         FAIR      36  30  80 VRB3      29.59F
TIOGA          FAIR      36  32  87 SW13G20   29.63R WCI  27
WATFORD CITY   FAIR      39  30  70 SW12      29.64F WCI  32
BISMARCK       FAIR      38  28  67 S5        29.70F
GRAND FORKS    MOCLDY    27  22  81 S7        29.70F WCI  19
FARGO            N/A     30  24  78 SW6         N/A  WCI  24
BUFFALO SD       N/A     45  27  49 W14       29.67S
RAPID CITY     FAIR      62  30  29 SE6       29.78F
$$

REGIONAL REPORTS...WYOMING/IDAHO/WASHINGTON

CITY           SKY/WX    TMP DP  RH WIND       PRES   REMARKS
GILLETTE       FAIR      47  28  47 SW26G37   29.77F
SHERIDAN       FAIR      38  28  67 W6        29.73F
BUFFALO WY     FAIR      54  21  27 S8        29.78F
CODY           FAIR      35  24  64 NE9       29.85F WCI  28
YELLOWSTONE LA   N/A     34  26  72 VRB3      30.01F
IDAHO FALLS    PTSUNNY   43  35  73 N3        29.97F
SALMON         CLOUDY    37  29  72 NE5       29.76F
BOISE          CLOUDY    47  36  65 N16       29.86R
SPOKANE        PTSUNNY   39  38  96 SW16      29.79F WCI  30
$$

REGIONAL REPORTS...ALBERTA

CITY           SKY/WX    TMP DP  RH WIND       PRES   REMARKS
CALGARY        MOSUNNY   46  21  36 W7        29.42S
CARDSTON         N/A     39  32  75 S8          N/A
EDMONTON       SUNNY     43  27  52 W7        29.31F
FORT MCMURRAY  MOCLDY    28  23  80 CALM      29.23S
HIGH LEVEL     LGT SNOW  27  27 100 SE3       29.18S FOG
LETHBRIDGE     PTSUNNY   41  32  70 SW21G28   29.55S
LLOYDMINSTER   PTCLDY    41  30  65 W15       29.28S
MEDICINE HAT   PTSUNNY   41  34  75 SW18G25   29.51S
MILK RIVER       N/A     41  34  75 SW14        N/A
ONEFOUR          N/A     39  32  75 W15         N/A  WCI  31
PEACE RIVER    MOCLDY    34  28  80 SW6       29.24R WCI  29
PINCHER CREEK  CLOUDY    39  30  70 SW14      29.56R WCI  31
WATERTON GATE    N/A     37  34  87 S9          N/A  WCI  31
$$

REGIONAL REPORTS...SASKATCHEWAN

CITY           SKY/WX    TMP DP  RH WIND       PRES   REMARKS
CORONACH         N/A     41  30  65 W16         N/A
CYPRESS HILLS    N/A     39  28  65 W20G28      N/A  WCI  30
ESTEVAN        CLOUDY    37  28  70 SW15      29.57S WCI  28
MOOSE JAW        N/A     46  32  57 SW23G30     N/A
PRINCE ALBERT  MOCLDY    34  27  75 S3        29.28F
REGINA         MOCLDY    37  32  81 S10       29.47F WCI  30
ROCKGLEN         N/A     41  28  60 W17G24      N/A
SASKATOON      CLOUDY    43  34  70 SW14      29.33F
SWIFT CURRENT  CLOUDY    41  32  70 SW22      29.47S
VAL MARIE        N/A     36  30  80 S7          N/A  WCI  30
$$




USA.gov is the U.S. government's official web portal to all federal, state and local government web resources and services.